User: anonymous
Location: Twentynine Palms Airport
(34.1316°N, 115.9458°W)
Time: 00:00:17
(UTC-07:00)
Language:

Oscar 19 - Orbit

View from above orbital plane
View from above orbital plane
View from above satellite
View from above satellite

Ground track
Ground track

The orbit data is extracted from the following two-line orbital elements,

1 20442U 90005G   14210.40124764  .00000111  00000-0  56723-4 0   162
2 20442 098.4785 147.4730 0012172 029.6786 330.5087 14.32571937280729
Epoch (UTC): 29 July 2014 09:37:47
Eccentricity: 0.0012172
inclination: 98.4785°
perigee height: 774 km
apogee height: 792 km
right ascension of ascending node: 147.4730°
argument of perigee: 29.6786°
revolutions per day: 14.32571937
mean anomaly at epoch: 330.5087°
orbit number at epoch: 28072

The dashed part of the orbit path shows where the satellite is in the earth's shadow,  

DLR